Flag for Italy Weather past 2 weeks in Palermo, Italy

Now
64 °F

Scattered clouds.


Feels Like: 64 °F
Forecast: 54 / 67 °F
Wind: 24 mph from West

Location: Palermo / Punta Raisi

Current Time: Apr 28, 2015 at 1:14:18 PM

Latest Report: Apr 28, 2015 at 12:20 PM


Visibility: N/A

Pressure: 29.89 "Hg

Humidity: 78%

Dew point: 57 °F

Location of PalermoLocation

Historic Weather in Palermo — Graph

°F

Palermo temperature yesterday

Maximum temperature yesterday: 68 °F (at 2:50 PM)
Minimum temperature yesterday: 57 °F (at 5:20 AM)
Average temperature yesterday: 64 °F

Past Weeks' High & Low Weather Summary

 TemperatureHumidityPressure
High81 °F (Apr 17, 1:20 PM)100% (Apr 19, 3:50 AM)30.39 "Hg (Apr 19, 3:50 AM)
Low52 °F (Apr 14, 5:20 AM)20% (Apr 17, 1:20 PM)29.71 "Hg (Apr 27, 3:50 PM)
Average63 °F78%30.09 "Hg
* Reported Apr 13 11:20 AM — Apr 28 11:50 AM, Palermo, Weather by CustomWeather, © 2015

Note: Actual official high and low records may vary slightly from our data, if they occured in-between our weather recording intervals... More about our weather records

Advertising

Palermo weather history for previous 24 hours

 ConditionsComfort  
Time TempWeatherWind HumidityBarometerVisibility
11:50 AM
Tue, Apr 28
64 °FScattered clouds.23 mph78%29.89 "HgN/A
11:20 AM64 °FScattered clouds.22 mph83%29.89 "HgN/A
10:50 AM64 °FScattered clouds.23 mph83%29.89 "HgN/A
10:20 AM66 °FScattered clouds.18 mph73%29.89 "HgN/A
9:50 AM64 °FScattered clouds.18 mph78%29.86 "HgN/A
9:20 AM64 °FScattered clouds.17 mph73%29.86 "HgN/A
8:50 AM63 °FScattered clouds.18 mph83%29.89 "HgN/A
8:20 AM63 °FScattered clouds.15 mph83%29.86 "Hg5 mi
7:50 AM63 °FScattered clouds.16 mph77%29.86 "HgN/A
7:20 AM63 °FScattered clouds.20 mph83%29.86 "Hg5 mi
6:50 AM63 °FPassing clouds.21 mph83%29.86 "HgN/A
6:20 AM63 °FPassing clouds.23 mph83%29.86 "HgN/A
5:50 AM63 °FPassing clouds.23 mph83%29.83 "HgN/A
5:20 AM63 °FPassing clouds.23 mph77%29.83 "HgN/A
4:50 AM63 °FPassing clouds.23 mph83%29.83 "HgN/A
4:20 AM63 °FPassing clouds.21 mph77%29.83 "HgN/A
3:50 AM63 °FPassing clouds.17 mph77%29.83 "HgN/A
3:20 AM63 °FPassing clouds.16 mph77%29.83 "HgN/A
2:50 AM61 °FPassing clouds.15 mph83%29.83 "HgN/A
2:20 AM63 °FPassing clouds.16 mph77%29.86 "HgN/A
1:50 AM63 °FPassing clouds.15 mph77%29.86 "HgN/A
1:20 AM63 °FPassing clouds.16 mph77%29.86 "HgN/A
12:50 AM63 °FPassing clouds.14 mph77%29.86 "HgN/A
12:20 AM63 °FPassing clouds.13 mph77%29.86 "HgN/A
11:50 PM
Mon, Apr 27
64 °FPassing clouds.14 mph73%29.86 "HgN/A
11:20 PM64 °FPassing clouds.14 mph73%29.86 "HgN/A
10:50 PM64 °FPassing clouds.12 mph73%29.86 "HgN/A
10:20 PM63 °FPassing clouds.13 mph77%29.86 "HgN/A
9:50 PM64 °FPassing clouds.13 mph73%29.86 "HgN/A
9:20 PM64 °FPassing clouds.14 mph78%29.83 "HgN/A
8:50 PM64 °FScattered clouds.13 mph78%29.83 "HgN/A
8:20 PM64 °FScattered clouds.13 mph83%29.83 "HgN/A
7:50 PM66 °FScattered clouds.15 mph78%29.80 "HgN/A
7:20 PM66 °FScattered clouds.14 mph78%29.80 "HgN/A
6:50 PM66 °FPartly sunny.17 mph78%29.80 "HgN/A
6:20 PM66 °FPartly sunny.14 mph78%29.80 "HgN/A
5:50 PM66 °FPartly sunny.13 mph78%29.80 "HgN/A
5:20 PM66 °FPartly sunny.16 mph78%29.80 "HgN/A
4:50 PM66 °FPartly sunny.20 mph73%29.80 "HgN/A
4:20 PM68 °FPartly sunny.21 mph64%29.74 "HgN/A
3:50 PM68 °FPartly sunny.15 mph69%29.71 "HgN/A
3:20 PM68 °FRain. Partly sunny.16 mph69%29.83 "Hg4 mi
2:50 PM68 °FScattered clouds.9 mph69%29.86 "HgN/A
2:20 PM66 °FPassing clouds.12 mph78%29.86 "HgN/A
1:50 PM66 °FPassing clouds.7 mph83%29.86 "HgN/A
Weather by CustomWeather, © 2015

See weather overviewHow to use our weather pages